Regional Weather Roundup
Issued by NWS Charleston, SC

Current Version | Previous Version | Text Only | Print | Product List | Glossary Off
Versions: 1 2 3 4 5 6 7 8 9 10 11 12 13 14 15 16 17 18 19 20 21 22 23 24 25 26 27 28 29 30 31 32 33 34 35 36 37 38 39 40 41 42 43 44 45 46 47 48 49 50

000
ASUS42 KCHS 251612
RWRCHS

REGIONAL WEATHER ROUNDUP
NATIONAL WEATHER SERVICE CHARLESTON SC
1200 PM EDT SAT MAR 25 2017

NOTE: "FAIR" INDICATES FEW OR NO CLOUDS BELOW 12,000 FEET WITH NO
SIGNIFICANT WEATHER AND/OR OBSTRUCTIONS TO VISIBILITY.

NOT ALL STATIONS ARE QUALITY CONTROLLED. USE DATA WITH CAUTION...
ESPECIALLY DEWPOINT OBSERVATIONS.

SCZ027-030-031-034>040-042>050-251700-
...SOUTHEAST SOUTH CAROLINA...

CITY           SKY/WX    TMP DP  RH WIND       PRES   REMARKS
N CHARLESTON   PTSUNNY   74  50  42 SE12      30.34F
WATERFRONT PRK   N/A     65  57  75 E7        30.34S
JOHNS ISLAND   CLOUDY    72  54  53 SE10      30.34F
PINOPOLIS        N/A     72  52  49 S6        30.26S
MONCKS CORNER  PTSUNNY   72  46  40 SE6       30.33F
SUMMERVILLE    CLOUDY    72  50  46 S7        30.34F
BEAUFORT MCAS  MOSUNNY   73  59  61 SE6       30.33F
BEAUFORT ARPT  PTSUNNY   72  55  56 SE7       30.33F
HILTON HEAD IS PTSUNNY   68  57  68 E3        30.34F
WALTERBORO     CLOUDY    70  52  52 SE10      30.34F
ALLENDALE      FAIR      73  52  46 SE10G18   30.31F

...SOUTHERN MIDLANDS AND PEE DEE...

CITY           SKY/WX    TMP DP  RH WIND       PRES   REMARKS
GEORGETOWN     CLOUDY    70  52  52 S7        30.36F
KINGSTREE      FAIR      72  46  40 S8        30.34S
ORANGEBURG     CLOUDY    71  53  52 S12       30.33F
BARNWELL       FAIR      73  55  53 S10G16    30.32F
AIKEN          FAIR      70  54  56 SE9       30.35S
MANNING        FAIR      70  50  49 SW10      30.34F
COLUMBIA       CLOUDY    72  52  49 S13       30.31F
SUMTER         PTSUNNY   72  50  45 S8        30.31S
FLORENCE       MOSUNNY   72  50  45 SW10      30.33F
MYRTLE BEACH   NOT AVBL
N MYRTLE BEACH CLOUDY    66  55  67 SE6       30.35F

$$

GAZ063-065-086>088-099>101-113>116-118-119-134>141-150-251700-
...SOUTHEAST GEORGIA...

CITY           SKY/WX    TMP DP  RH WIND       PRES   REMARKS
SAVANNAH ARPT  PTSUNNY   77  50  38 SE12      30.32F
HUNTER AAF     MOSUNNY   76  56  49 SE12      30.29F
FORT STEWART   PTSUNNY   73  54  51 SE8       30.29F
STATESBORO     MOSUNNY   75  57  52 S10       30.31F
SYLVANIA       MOSUNNY  N/A N/A N/A S5        30.32F
CLAXTON        FAIR      73  62  68 E6        30.31F

...CSRA...CENTRAL AND FAR SOUTHEAST GEORGIA...

CITY           SKY/WX    TMP DP  RH WIND       PRES   REMARKS
THOMSON        PTSUNNY   70  55  58 SW9       30.35F
AUGUSTA-BUSH   PTSUNNY   74  55  51 S12       30.30F
AUGUSTA-DANIEL PTSUNNY   71  53  52 S12       30.31F
SWAINSBORO     PTSUNNY   72  54  53 S10       30.31F
VIDALIA        MOSUNNY   75  55  50 S12       30.30F
EASTMAN        FAIR      74  43  32 S10G16    30.31F
HAZLEHURST     FAIR      74  60  61 SE8       30.28F
ALMA           PTSUNNY   75  58  55 SE10      30.29F
WAYCROSS       PTSUNNY   77  62  60 SE9       30.29F
JESUP          FAIR      75  55  50 SE7       30.31F
BAXLEY         CLOUDY    73  61  64 S8        30.29F
BRUNSWICK      MOSUNNY   75  59  57 SE12      30.32F
SAINT SIMONS   MOSUNNY   73  57  57 E12       30.32S

$$

SCZ027-028-034-036>038-045-046-048>050-GAZ119-141-251700-
...LAKE AND SUPPLEMENTAL COASTAL OBSERVATIONS...

STATION/POSITION TIME  TEMP    WIND        PRES    WAVE   SWELL
                       AIR SEA DIR/SP/G            HT/PER HT/PER/DIR
                 (UTC) (F)     (DEG/KT/KT) (MB)    (FT/S) (FT/S/D)
WINYAH BAY       NOT AVBL
LAKE MURRAY      1520   69        CALM     1026.4S
ACE BASIN NERRS  NOT AVBL
FORT PULASKI     1536   65 61   90/  6/  7 1027.5F
SAPELO ISLAND    1500   71     100/  5     1027.0

$$

ANZ835-935-AMZ111-154-330-350-352-354-370-450-454-472-251700-
...C-MAN AND BUOY OBSERVATIONS...

STATION/POSITION TIME  TEMP    WIND        PRES    WAVE   SWELL
                       AIR SEA DIR/SP/G            HT/PER HT/PER/DIR
                 (UTC) (F)     (DEG/KT/KT) (MB)    (FT/S) (FT/S/D)
BUOY 41004       1450   70 70  120/  8/ 10 1027.8    4/ 8   3/150/ 8
BUOY 41008       1450   65 62  100/  6/  8 1026.7    4/ 8   3/100/ 8
FOLLY BEACH CMAN 1500   63      80/  4/  5 1028.5R
CAPERS NEARSHORE 1508   62      50/  4/  6 1028.1S
FRIPP NEARSHORE  1508   63 60   90/  6/  8 1027.2R


STATION/POSITION TIME  TEMP    WIND        PRES    WAVE   SWELL
                       AIR SEA DIR/SP/G            HT/PER HT/PER/DIR
                 (UTC) (F)     (DEG/KT/KT) (MB)    (FT/S) (FT/S/D)
5E ST. MARYS GA  1530      64                N/A     4/ 9
FRYING PAN BUOY  1550   70 72  170/ 10/ 16 1028.3F   3/ 8   3/130/ 8
BUOY 41025       1550   69 76  270/ 14/ 17 1028.0F   3/ 6   2/ 90/10
CAPE LOOKOUT NC  1500   70     230/  8/ 11 1028.3S
BUOY 41002       1550   66 73   80/ 14/ 17 1029.3F   5/ 8   3/120/ 8
BUOY 41010       NOT AVBL
ST AUGUSTINE FL  1600   67 67  110/  8/  9 1026.7F


$$




USA.gov is the U.S. government's official web portal to all federal, state and local government web resources and services.